Visibility
15.0 15.0 15.0 15.0 15.0 15.0 15.0 15.0 4.7 4.2 15.0 15.0 15.0 15.0 15.0 15.0 15.0 15.0 15.0 0.4 15.0 15.0 15.0 15.0 8.9 1.1 2.2 1.9 1.9 7.4 14.3 5.9 9.4 15.0 15.0 15.0 15.0 15.0
15.0 15.0 15.0 15.0 15.0 15.0 15.0 15.0 15.0 15.0 5.6 14.8 15.0 15.0 15.0 15.0 15.0 15.0 15.0 0.6 4.4 15.0 15.0 15.0 15.0 15.0 4.0 3.3 2.3 2.4 2.4 4.6 11.0 15.0 11.2 12.5 10.2 14.9
15.0 15.0 15.0 15.0 15.0 15.0 15.0 15.0 15.0 13.7 7.0 15.0 15.0 15.0 13.7 15.0 4.0 5.5 0.5 0.6 2.4 15.0 15.0 15.0 15.0 0.9 4.6 8.3 6.3 3.9 2.9 5.1 13.1 4.7 15.0 7.4 14.4 15.0
15.0 15.0 15.0 15.0 15.0 15.0 15.0 15.0 15.0 15.0 15.0 15.0 14.0 0.7 5.4 1.9 0.1 0.1 0.1 0.3 0.2 15.0 12.3 15.0 10.8 0.2 1.1 5.8 2.6 2.9 3.1 14.8 14.4 7.0 9.8 7.6 9.9 12.7
15.0 15.0 15.0 15.0 15.0 15.0 15.0 15.0 15.0 15.0 13.9 14.4 13.1 6.9 0.1 0.1 0.1 0.1 0.1 0.1 3.6 15.0 15.0 15.0 15.0 15.0 15.0 7.6 3.8 8.1 4.2 8.5 7.7 8.4 8.1 7.6 6.0 14.4
15.0 15.0 15.0 15.0 15.0 15.0 15.0 15.0 15.0 15.0 15.0 12.5 6.3 0.2 0.2 0.1 0.1 0.0 0.0 0.1 0.1 11.7 9.8 7.4 7.7 6.3 7.3 10.4 5.8 3.6 3.9 3.3 5.2 7.5 13.3 13.4 7.5 14.8
15.0 15.0 15.0 15.0 15.0 15.0 15.0 15.0 15.0 15.0 15.0 9.8 0.3 0.1 0.0 0.0 0.0 0.1 0.1 0.1 0.3 0.6 0.2 4.6 0.1 6.8 13.2 8.8 15.0 6.8 3.9 4.0 6.7 9.3 15.0 8.2 13.3 15.0
10.6 15.0 15.0 15.0 15.0 15.0 15.0 15.0 15.0 15.0 15.0 15.0 6.7 0.3 0.1 0.1 0.1 0.1 0.1 0.1 0.1 15.0 15.0 0.9 11.3 0.4 0.1 2.7 5.9 7.6 6.6 7.6 12.2 13.2 8.4 15.0 15.0 15.0
10.8 12.6 15.0 15.0 15.0 15.0 15.0 15.0 15.0 15.0 15.0 15.0 15.0 11.9 5.1 4.8 3.7 0.1 0.4 15.0 0.2 0.3 15.0 0.2 8.9 1.8 15.0 14.6 14.9 14.7 15.0 15.0 15.0 15.0 15.0 15.0 15.0 15.0
4.1 14.2 15.0 15.0 15.0 15.0 15.0 15.0 15.0 15.0 15.0 15.0 15.0 14.8 15.0 12.5 15.0 12.5 9.2 0.4 6.8 5.9 15.0 0.6 14.8 15.0 10.2 13.4 11.8 15.0 14.4 15.0 15.0 15.0 15.0 15.0 15.0 15.0
4.7 15.0 14.2 15.0 15.0 15.0 15.0 15.0 15.0 15.0 15.0 15.0 15.0 14.3 14.7 10.9 15.0 6.2 0.3 6.1 0.3 13.2 9.2 14.1 2.5 3.7 1.1 0.1 6.1 14.0 15.0 15.0 15.0 15.0 15.0 15.0 15.0 15.0
13.7 15.0 5.3 11.8 15.0 15.0 15.0 15.0 15.0 15.0 15.0 15.0 15.0 15.0 15.0 15.0 15.0 15.0 15.0 2.4 2.1 0.2 15.0 1.4 5.8 15.0 6.5 0.6 0.1 15.0 15.0 14.9 15.0 15.0 15.0 15.0 15.0 15.0
0.1 0.1 14.5 15.0 15.0 14.4 13.8 15.0 15.0 15.0 15.0 15.0 8.5 0.2 0.2 5.0 6.5 15.0 15.0 13.3 12.4 11.9 15.0 15.0 2.9 2.2 3.6 1.1 2.4 12.0 0.5 15.0 15.0 15.0 15.0 15.0 15.0 15.0
0.0 0.0 5.9 15.0 15.0 15.0 13.9 13.7 10.5 11.6 15.0 0.1 0.0 0.1 0.1 0.1 0.1 5.9 15.0 15.0 15.0 15.0 15.0 15.0 7.0 0.9 15.0 15.0 2.9 8.2 15.0 15.0 15.0 15.0 15.0 15.0 15.0 15.0
13.4 14.9 13.5 14.7 15.0 15.0 14.9 13.7 15.0 15.0 0.1 0.0 0.1 0.1 0.7 0.6 1.1 0.5 12.7 6.3 8.3 5.5 14.4 15.0 8.7 1.2 2.2 1.3 0.2 0.1 2.4 15.0 15.0 15.0 15.0 15.0 15.0 15.0
0.6 15.0 14.5 15.0 15.0 15.0 15.0 15.0 15.0 12.2 0.2 0.1 0.5 1.7 3.6 2.6 1.3 15.0 15.0 5.5 7.3 0.1 0.1 0.5 4.8 4.3 0.1 0.7 4.3 12.0 15.0 15.0 15.0 15.0 15.0 15.0 15.0 15.0
0.0 0.1 0.0 0.0 0.1 0.9 12.6 15.0 15.0 0.5 0.2 13.3 0.3 0.3 3.2 1.0 1.1 15.0 14.9 7.8 2.0 0.2 0.1 0.1 0.2 5.6 4.1 14.0 15.0 15.0 15.0 15.0 13.9 15.0 15.0 15.0 15.0 15.0
0.0 0.1 0.2 0.2 0.3 0.2 0.0 0.1 0.1 0.2 15.0 15.0 9.1 14.6 5.5 5.5 1.1 0.5 0.2 0.2 0.1 0.1 0.1 0.3 15.0 15.0 15.0 15.0 15.0 15.0 12.8 15.0 15.0 15.0 15.0 15.0 15.0 15.0
0.1 0.1 0.2 0.1 0.2 0.3 0.1 0.1 0.2 6.6 7.4 1.9 0.2 0.1 0.1 0.1 0.1 0.1 0.1 0.1 0.1 0.1 0.3 13.6 15.0 15.0 15.0 1.0 6.0 15.0 14.7 9.4 15.0 15.0 8.5 5.5 8.0 15.0
0.1 0.1 0.1 0.1 0.1 0.1 0.1 0.1 0.1 0.1 0.1 0.1 0.1 0.1 0.1 0.1 0.1 0.1 0.1 0.1 3.5 15.0 12.6 4.2 12.6 15.0 15.0 15.0 7.0 6.8 15.0 15.0 15.0 12.5 8.7 13.0 15.0 15.0
0.1 0.1 0.1 0.1 0.1 0.1 0.1 0.1 0.1 0.1 0.1 0.1 0.1 0.1 0.1 0.1 0.1 0.2 2.6 11.1 15.0 15.0 12.0 4.8 3.2 15.0 15.0 15.0 13.0 4.8 14.7 15.0 15.0 15.0 10.0 9.1 4.1 14.5
0.1 0.1 0.1 0.1 0.1 0.1 0.1 0.1 0.1 0.1 0.1 0.1 0.1 0.1 0.1 0.2 4.0 14.6 15.0 15.0 15.0 15.0 2.7 1.3 5.7 14.8 15.0 15.0 7.1 4.1 14.9 15.0 15.0 15.0 15.0 15.0 10.5 4.1
0.1 0.1 0.1 0.1 0.1 0.1 0.1 0.1 0.1 0.1 0.1 0.1 0.1 0.1 10.7 15.0 15.0 15.0 15.0 15.0 15.0 8.6 15.0 15.0 15.0 15.0 7.7 15.0 1.5 4.5 14.7 14.7 7.1 14.6 15.0 15.0 15.0 15.0